THORAD AGENA D DEB, 42520

Orbit data source: Space-Track

THORAD AGENA D DEB, 42520 is space debris in SSO originally from a launch on Wed, 08 Apr 1970 UTC launched from the Air Force Western Test Range (AFWTR). Debris objects in space refer to the collection of defunct objects orbiting the Earth. Examples of debris include non-operational satellites, rocket bodies, and fragments generated from explosions, collisions, or faulty payload assembly.

Loading next visibility...
Identifier
42520, 1970-025SA
Orbit
SSO
Country
Flag of USUS
Related business
Manufacturer
Unknown
Mission
Spacecraft
Bus & Motor
Unknown
Mass
Unknown
Launch date (UTC)
1970-04-08 (56 years ago)
Launch vehicle
Unknown
Launch site
Air Force Western Test Range (AFWTR)
Object type
Payload
Rocket body
Debris
Shape & HBR
Unknown shape, 0.1 m
Radar Cross Section
Small (<0.1 m²)

Expand to show TLE details & history
Last TLE update: 2 weeks ago

TLE from 2 weeks ago
0 THORAD AGENA D DEB
1 42520U 70025SA  26160.84900613  .00001300  00000-0  10507-2 0  9992
2 42520 100.3023  26.5971 0095016 117.8302 243.2521 13.90346322626126
Epoch: 2026-06-09T20:22Z
TLE epoch observation values (Epoch: 2026-06-09T20:22:34.129Z)
Latitude
0.00002°
Longitude
-177.26072°
Altitude
962.007 km
Speed
7.355 km/s
True Right ascension
01h 46m 23s
True Declination
0° 00' 00"
Sunlit
Object was in daylight at epoch
Visualization orbit readout
Latitude
Unknown
Longitude
Unknown
Altitude
Unknown
Speed
Unknown
Apparent Right ascension
Unknown
Apparent Declination
Unknown
Sunlit
N/A
Visualization observer readout
Local Sidereal Time
23:27:14
Azimuth
Unknown
Elevation
Unknown
Doppler factor
Unknown
Orbital elements
Apogee altitude
994.086 km
Perigee altitude
855.309 km
Semi-major axis
7,302.834 km
Eccentricity
0.0095
Inclination
100.3023°
RAAN
26.5971°
Arg. of periapsis
117.8302°
True anomaly
242.28502°
Mean anomaly
243.2521°
Eccentric anomaly
242.76804°
Mean motion
3.47781 °/min
Orbital period
103.51 mins
BSTAR
0.0010507
Loading maneuver chart data...
Computing Atmospheric mass density...

Documentation

Showing up to 5 results
|